Overview Statistics Trail Chart Weather Telemetry Raw packets
 

This is the latest recevied weather packets stored in our database for station/object KV9E. If no packets are shown the sender has not sent any weather packets the latest 10 day(s).

<< 89 90 91 92 93 94 95 >>
Time Temp. Humidity Pressure Rain* Wind** Luminosity Snow
1787950938 28.33° C 55% 1017.4 hPa 0 mm - 364 W/m² -
1787950633 28.33° C 59% 1017.4 hPa 0 mm - 365 W/m² -
1787950329 27.78° C 54% 1017.3 hPa 0 mm - 378 W/m² -
1787950025 27.78° C 58% 1017.5 hPa 0 mm - 99 W/m² -
1787949720 29.44° C 54% 1017.7 hPa 0 mm - 119 W/m² -
1787949419 29.44° C 53% 1017.3 hPa 0 mm - 457 W/m² -
1787949114 29.44° C 57% 1017.4 hPa 0 mm - 449 W/m² -
1787948811 28.89° C 58% 1017.6 hPa 0 mm - 454 W/m² -
1787948510 30° C 54% 1017.4 hPa 0 mm - 177 W/m² -
1787948206 29.44° C 56% 1017.7 hPa 0 mm - 478 W/m² -
1787947904 28.89° C 56% 1017.7 hPa 0 mm - 480 W/m² -
1787947599 28.89° C 56% 1017.7 hPa 0 mm - 493 W/m² -
1787947292 27.78° C 59% 1017.9 hPa 0 mm - 497 W/m² -
1787946987 27.78° C 59% 1017.8 hPa 0 mm - 507 W/m² -
1787946685 28.33° C 61% 1017.8 hPa 0 mm - 83 W/m² -
1787946380 27.78° C 58% 1017.8 hPa 0 mm - 535 W/m² -
1787946086 27.78° C 60% 1017.9 hPa 0 mm - 544 W/m² -
1787945775 28.89° C 60% 1018.2 hPa 0 mm - 96 W/m² -
1787945470 29.44° C 55% 1018 hPa 0 mm - 564 W/m² -
1787945165 28.89° C 58% 1018.1 hPa 0 mm - 593 W/m² -
1787944863 29.44° C 56% 1018.1 hPa 0 mm - 604 W/m² -
1787944557 28.89° C 57% 1018.2 hPa 0 mm - 590 W/m² -
1787944253 28.89° C 56% 1018 hPa 0 mm - 596 W/m² -
1787943953 28.89° C 55% 1018.2 hPa 0 mm - 609 W/m² -
1787943649 27.78° C 58% 1018.1 hPa 0 mm - 620 W/m² -

* Rain latest hour (hover to see other rain measurements)
** Current wind speed in m/s (hover to see current wind gust speed)